| time (UTC) | temp F | wind direction | speed knots | gust knots | rain 1hr in | rain 24hr in | rain mn in | humidity % | barometer mb |
| 20260504150616 | 49 | 114 | 1.7 | 6.1 | 0.00 | 0.00 | 0.00 | 48 | 1013.9 |
| 20260504140616 | 45 | 77 | 1.7 | 4.3 | 0.00 | 0.00 | 0.00 | 55 | 1014.2 |
| 20260504130656 | 43 | 65 | 1.7 | 4.3 | 0.00 | 0.00 | 0.00 | 58 | 1013.7 |
| 20260504110617 | 44 | 70 | 3.5 | 10.4 | 0.00 | 0.00 | 0.00 | 57 | 1012.3 |
| 20260504081617 | 45 | 226 | 0.0 | 0.9 | 0.00 | 0.00 | 0.00 | 56 | 1010.1 |
| 20260504080618 | 46 | 77 | 1.7 | 2.6 | 0.00 | 0.00 | 0.00 | 53 | 1010.1 |
| 20260504050617 | 51 | 98 | 0.0 | 0.9 | 0.00 | 0.00 | 0.00 | 46 | 1010.1 |
| 20260504045637 | 50 | 113 | 0.0 | 0.9 | 0.00 | 0.00 | 0.00 | 50 | 1010.0 |
| 20260504044638 | 51 | 0.0 | 0.0 | 0.00 | 0.00 | 0.00 | 48 | 1010.0 | |
| 20260504043638 | 51 | 0.0 | 0.0 | 0.00 | 0.00 | 0.00 | 46 | 1010.0 | |
| 20260504042618 | 51 | 0.0 | 0.0 | 0.00 | 0.00 | 0.00 | 47 | 1009.9 | |
| 20260504041617 | 51 | 0.0 | 0.0 | 0.00 | 0.00 | 0.00 | 49 | 1009.8 | |
| 20260504040637 | 52 | 0.0 | 0.9 | 0.00 | 0.00 | 0.00 | 47 | 1009.7 | |
| 20260504035617 | 53 | 0.0 | 0.0 | 0.00 | 0.00 | 0.00 | 44 | 1009.6 | |
| 20260504034642 | 53 | 0.0 | 0.9 | 0.00 | 0.00 | 0.00 | 45 | 1009.4 | |
| 20260504033617 | 54 | 101 | 0.0 | 0.9 | 0.00 | 0.00 | 0.00 | 44 | 1009.3 |
| 20260504032617 | 55 | 84 | 0.0 | 0.9 | 0.00 | 0.00 | 0.00 | 43 | 1009.2 |
| 20260504031617 | 56 | 0.0 | 0.9 | 0.00 | 0.00 | 0.00 | 43 | 1009.0 | |
| 20260504030617 | 56 | 136 | 0.0 | 0.9 | 0.00 | 0.00 | 0.00 | 42 | 1009.0 |
| 20260504025617 | 58 | 0.0 | 0.0 | 0.00 | 0.00 | 0.00 | 39 | 1008.9 | |
| 20260504024618 | 60 | 0.0 | 0.0 | 0.00 | 0.00 | 0.00 | 37 | 1008.9 | |
| 20260504023637 | 62 | 0.0 | 0.0 | 0.00 | 0.00 | 0.00 | 32 | 1008.8 | |
| 20260504022617 | 63 | 0.0 | 0.0 | 0.00 | 0.00 | 0.00 | 35 | 1008.8 | |
| 20260504021618 | 66 | 0.0 | 0.0 | 0.00 | 0.00 | 0.00 | 30 | 1008.7 | |
| 20260504020618 | 68 | 0.0 | 0.0 | 0.00 | 0.00 | 0.00 | 29 | 1008.6 | |
| 20260504015617 | 68 | 0.0 | 0.0 | 0.00 | 0.00 | 0.00 | 25 | 1008.7 | |
| 20260504014617 | 69 | 0.0 | 0.0 | 0.00 | 0.00 | 0.00 | 24 | 1008.7 | |
| 20260504013617 | 70 | 259 | 0.0 | 0.9 | 0.00 | 0.00 | 0.00 | 25 | 1008.7 |
| 20260504012622 | 70 | 0.0 | 0.9 | 0.00 | 0.00 | 0.00 | 22 | 1008.8 | |
| 20260504011617 | 72 | 258 | 0.0 | 2.6 | 0.00 | 0.00 | 0.00 | 21 | 1008.8 |
| 20260504010617 | 72 | 269 | 0.9 | 2.6 | 0.00 | 0.00 | 0.00 | 20 | 1009.0 |
| 20260504005617 | 73 | 259 | 0.9 | 1.7 | 0.00 | 0.00 | 0.00 | 22 | 1009.0 |
| 20260504004618 | 73 | 260 | 1.7 | 2.6 | 0.00 | 0.00 | 0.00 | 22 | 1009.2 |
| 20260504003617 | 74 | 263 | 1.7 | 4.3 | 0.00 | 0.00 | 0.00 | 20 | 1009.3 |
| 20260504002617 | 73 | 207 | 0.0 | 2.6 | 0.00 | 0.00 | 0.00 | 20 | 1009.3 |
| 20260504001618 | 74 | 288 | 1.7 | 2.6 | 0.00 | 0.00 | 0.00 | 23 | 1009.3 |
| 20260504000616 | 74 | 261 | 1.7 | 4.3 | 0.00 | 0.00 | 0.00 | 22 | 1009.4 |
| 20260503235617 | 74 | 258 | 0.0 | 1.7 | 0.00 | 0.00 | 0.00 | 22 | 1009.8 |
| 20260503234618 | 73 | 283 | 0.9 | 4.3 | 0.00 | 0.00 | 0.00 | 22 | 1010.0 |
| 20260503233618 | 73 | 161 | 0.0 | 2.6 | 0.00 | 0.00 | 0.00 | 25 | 1009.9 |
| 20260503232616 | 73 | 268 | 2.6 | 4.3 | 0.00 | 0.00 | 0.00 | 22 | 1010.0 |
| 20260503231616 | 74 | 266 | 1.7 | 2.6 | 0.00 | 0.00 | 0.00 | 24 | 1010.1 |
| 20260503230617 | 73 | 258 | 1.7 | 4.3 | 0.00 | 0.00 | 0.00 | 24 | 1010.2 |
| 20260503225636 | 73 | 267 | 2.6 | 4.3 | 0.00 | 0.00 | 0.00 | 23 | 1010.3 |
| 20260503224637 | 72 | 218 | 1.7 | 3.5 | 0.00 | 0.00 | 0.00 | 24 | 1010.5 |
| 20260503223617 | 73 | 258 | 0.0 | 2.6 | 0.00 | 0.00 | 0.00 | 23 | 1010.6 |
| 20260503222616 | 73 | 250 | 0.9 | 3.5 | 0.00 | 0.00 | 0.00 | 24 | 1010.7 |
| 20260503221617 | 72 | 252 | 0.0 | 1.7 | 0.00 | 0.00 | 0.00 | 25 | 1011.0 |
| 20260503220617 | 72 | 229 | 0.9 | 6.1 | 0.00 | 0.00 | 0.00 | 23 | 1011.1 |
| 20260503215616 | 72 | 292 | 1.7 | 2.6 | 0.00 | 0.00 | 0.00 | 26 | 1011.4 |
| 20260503214617 | 71 | 271 | 0.9 | 4.3 | 0.00 | 0.00 | 0.00 | 24 | 1011.5 |
| 20260503213637 | 72 | 258 | 2.6 | 7.0 | 0.00 | 0.00 | 0.00 | 23 | 1011.8 |
| 20260503212617 | 72 | 274 | 1.7 | 4.3 | 0.00 | 0.00 | 0.00 | 25 | 1011.9 |
| 20260503211616 | 72 | 263 | 1.7 | 4.3 | 0.00 | 0.00 | 0.00 | 27 | 1012.0 |
| 20260503210617 | 72 | 272 | 2.6 | 7.8 | 0.00 | 0.00 | 0.00 | 23 | 1012.3 |
| 20260503205616 | 71 | 260 | 2.6 | 3.5 | 0.00 | 0.00 | 0.00 | 26 | 1012.3 |
| 20260503204616 | 71 | 302 | 1.7 | 4.3 | 0.00 | 0.00 | 0.00 | 26 | 1012.5 |
| 20260503203616 | 71 | 269 | 1.7 | 3.5 | 0.00 | 0.00 | 0.00 | 28 | 1012.7 |
| 20260503202616 | 70 | 269 | 2.6 | 6.1 | 0.00 | 0.00 | 0.00 | 31 | 1012.8 |
| 20260503201617 | 71 | 265 | 1.7 | 5.2 | 0.00 | 0.00 | 0.00 | 28 | 1012.9 |
| 20260503200616 | 70 | 273 | 1.7 | 2.6 | 0.00 | 0.00 | 0.00 | 27 | 1013.0 |
| 20260503195616 | 70 | 276 | 1.7 | 5.2 | 0.00 | 0.00 | 0.00 | 26 | 1013.2 |
| 20260503194616 | 69 | 276 | 0.9 | 2.6 | 0.00 | 0.00 | 0.00 | 27 | 1013.4 |
| 20260503193616 | 69 | 263 | 0.9 | 3.5 | 0.00 | 0.00 | 0.00 | 31 | 1013.6 |
| 20260503192617 | 69 | 279 | 0.0 | 0.9 | 0.00 | 0.00 | 0.00 | 34 | 1013.7 |
| 20260503191616 | 69 | 267 | 1.7 | 1.7 | 0.00 | 0.00 | 0.00 | 29 | 1013.9 |
| 20260503190616 | 68 | 269 | 0.9 | 1.7 | 0.00 | 0.00 | 0.00 | 32 | 1013.9 |
| 20260503185616 | 67 | 238 | 0.9 | 3.5 | 0.00 | 0.00 | 0.00 | 31 | 1014.1 |
| 20260503184616 | 67 | 257 | 2.6 | 6.1 | 0.00 | 0.00 | 0.00 | 30 | 1014.3 |
| 20260503183621 | 67 | 348 | 0.9 | 1.7 | 0.00 | 0.00 | 0.00 | 31 | 1014.4 |
| 20260503182617 | 67 | 253 | 0.9 | 2.6 | 0.00 | 0.00 | 0.00 | 32 | 1014.5 |
| 20260503181617 | 66 | 267 | 1.7 | 2.6 | 0.00 | 0.00 | 0.00 | 37 | 1014.5 |
| 20260503180636 | 65 | 262 | 1.7 | 2.6 | 0.00 | 0.00 | 0.00 | 34 | 1014.6 |
| 20260503175616 | 64 | 266 | 1.7 | 1.7 | 0.00 | 0.00 | 0.00 | 35 | 1014.8 |
| 20260503174636 | 65 | 275 | 0.9 | 2.6 | 0.00 | 0.00 | 0.00 | 35 | 1015.0 |
| 20260503173616 | 64 | 97 | 0.0 | 1.7 | 0.00 | 0.00 | 0.00 | 37 | 1015.1 |
| 20260503172616 | 64 | 46 | 1.7 | 3.5 | 0.00 | 0.00 | 0.00 | 38 | 1015.2 |
| 20260503171616 | 63 | 0.0 | 1.7 | 0.00 | 0.00 | 0.00 | 39 | 1015.4 | |
| 20260503170617 | 63 | 13 | 0.9 | 3.5 | 0.00 | 0.00 | 0.00 | 38 | 1015.4 |